sat.trackr.live / text

‹ back to catalog

STARLINK-36477

NORAD 67355 · 2026-003X

PAYLOAD ACTIVE UNKNOWN

§ Identity

Operator
Country
US
Launch date
2026-01-09
Launch site
AFETR
Launch vehicle
Mass (kg)
RCS (m²)

Purposes: comms

External: N2YO · Heavens-Above · Gunter

§ Orbital elements

Epoch: 2026-05-25T02:03:53.905248Z

Period
94.27 min
Inclination
42.9999°
Eccentricity
0.0001340
Mean motion
15.27591079 rev/d
Perigee alt
482.1 km
Apogee alt
483.9 km
Semi-major
6,861.2 km
B*
5.2062e-4
RAAN
155.9780°
Arg perigee
258.5733°
Mean anomaly
101.4968°
Rev number
2,050

§ Raw data

STARLINK-364771 67355U 26003X   26145.08604057  .00014096  00000+0  52062-3 0  99922 67355  42.9999 155.9780 0001340 258.5733 101.4968 15.27591079 20508

JSON: /api/v1/satellites/67355 · /tle

For live sub-satellite position, see the globe view (requires WebGL).

§ Visibility from observer

Set your observer location to see the next 7 days of passes ≥ 10°. The values pass through the URL so the page stays shareable.

No JS? Fill the form by hand. The geolocation button needs JavaScript.